"2016-02-20 00:00:00",1389531,6.898,322,9.59,1.476,18.23,105.375,13.03,14.34,13.04,0,110.6,13.08,13.83,284.0
"2016-02-20 00:00:30",1389532,6.552,335.2,13.81,1.627,16.69,105.3578,12.99,14.27,13.3,0,110.6,13.08,13.79,297.2
"2016-02-20 00:01:00",1389533,6.469,352,13.83,0.956,15.47,105.3417,12.95,14.14,13.21,0,110.6,13.09,13.74,314.0
"2016-02-20 00:01:30",1389534,4.498,359.1,41.19,0.545,14.02,105.3338,12.93,14.04,13.24,0,110.6,13.13,13.72,321.1
"2016-02-20 00:02:00",1389535,6.259,335.7,39.74,0.619,14.36,105.3121,12.87,14.01,13.22,0,110.6,13.14,13.67,297.7
"2016-02-20 00:02:30",1389536,6.824,318.2,3.247,1.613,14.67,105.2983,12.84,13.99,12.06,0,110.6,13.14,13.63,280.2
"2016-02-20 00:03:00",1389537,6.363,328.8,13.11,1.233,14.82,105.2747,12.78,13.93,12.72,0,110.6,13.14,13.57,290.8
"2016-02-20 00:03:30",1389538,5.811,332,6.404,1.309,16.32,105.2733,12.77,14.01,13.3,0,110.6,13.09,13.57,294.0
"2016-02-20 00:04:00",1389539,7.943,337.9,13.06,1.624,18.29,105.2535,12.72,14.09,13.48,0,110.6,13.09,13.52,299.9
"2016-02-20 00:04:30",1389540,8.3,330.2,8.55,1.895,18.21,105.24,12.69,14.11,13.72,0,110.6,13.09,13.48,292.2
"2016-02-20 00:05:00",1389541,5.354,308,4.399,0.353,14.4,105.2375,12.68,13.83,13.52,0,110.6,13.14,13.48,270.0
"2016-02-20 00:05:30",1389542,5.597,319.8,8.43,1.167,15.2,105.2161,12.63,13.9,14.14,0,110.6,13.09,13.42,281.8
"2016-02-20 00:06:00",1389543,5.635,318.8,7.492,1.273,15.06,105.2026,12.59,13.87,14.89,0,110.6,13.09,13.39,280.8
"2016-02-20 00:06:30",1389544,4.307,319.6,4.532,0.384,13.8,105.191,12.56,13.69,16.4,0,110.6,13.14,13.36,281.6
"2016-02-20 00:07:00",1389545,3.085,339.3,10.26,0.303,14.05,105.1758,12.52,13.68,16.26,0,110.6,13.14,13.32,301.3
"2016-02-20 00:07:30",1389546,3.551,345,8.07,0.433,14.54,105.1724,12.51,13.65,14.68,0,110.6,13.14,13.31,307.0
"2016-02-20 00:08:00",1389547,3.364,21.1,13.7,1.304,16.36,105.1727,12.51,13.78,13.87,0,110.6,13.1,13.31,343.1
"2016-02-20 00:08:30",1389548,4.262,23.68,16.21,1.785,17.64,105.1659,12.5,13.76,13.73,0,110.6,13.1,13.29,345.7
"2016-02-20 00:09:00",1389549,1.116,348.3,16.1,0.379,14.63,105.1575,12.48,13.58,13.4,0,110.6,13.15,13.27,310.3
"2016-02-20 00:09:30",1389550,2.461,15.58,10.94,0.582,14.47,105.1433,12.44,13.65,13.74,0,110.6,13.15,13.23,337.6
"2016-02-20 00:10:00",1389551,3.98,359.2,17.48,1.793,17.08,105.1451,12.44,13.71,13.84,0,110.6,13.1,13.24,321.2
"2016-02-20 00:10:30",1389552,2.304,328.7,15.02,0.525,14.3,105.1469,12.45,13.6,13.74,0,110.6,13.15,13.24,290.7
"2016-02-20 00:11:00",1389553,2.188,340,30.2,0.405,13.86,105.1463,12.45,13.53,13.97,0,110.6,13.15,13.24,302.0
"2016-02-20 00:11:30",1389554,1.501,2.197,10.88,0.683,13.85,105.1359,12.42,13.52,13.96,0,110.6,13.15,13.22,324.2
"2016-02-20 00:12:00",1389555,0.647,24.43,11.19,0.253,13.91,105.1182,12.37,13.51,13.98,0,110.6,13.15,13.17,346.4
"2016-02-20 00:12:30",1389556,0.382,347.9,28.54,0.346,14.17,105.1149,12.37,13.48,13.99,0,110.6,13.15,13.16,309.9
"2016-02-20 00:13:00",1389557,-0.191,25.39,51.16,0.13,14.42,105.1158,12.37,13.47,14.04,0,110.6,13.15,13.16,347.4
"2016-02-20 00:13:30",1389558,0.09,357.2,18.42,0.261,14.57,105.1116,12.36,13.44,14.08,0,110.6,13.14,13.15,319.2
"2016-02-20 00:14:00",1389559,0.68,341,13.53,0.144,14.45,105.094,12.31,13.43,14.15,0,110.6,13.14,13.11,303.0
"2016-02-20 00:14:30",1389560,0.715,315,12.43,0.249,14.6,105.0861,12.29,13.39,14.16,0,110.6,13.14,13.09,277.0
"2016-02-20 00:15:00",1389561,0.941,336.6,6.653,0.121,14.71,105.0823,12.28,13.36,14.17,0,110.6,13.14,13.08,298.6
"2016-02-20 00:15:30",1389562,1.23,23.06,16.29,1.412,16.48,105.0726,12.26,13.37,14.05,0,110.6,13.1,13.05,345.1
"2016-02-20 00:16:00",1389563,1.21,18.11,13.61,1.273,17.21,105.0676,12.25,13.51,14.43,0,110.6,13.1,13.04,340.1
"2016-02-20 00:16:30",1389564,0.894,2.618,17.37,0.869,15.17,105.0655,12.24,13.28,14.87,0,110.6,13.1,13.03,324.6
"2016-02-20 00:17:00",1389565,0.897,1.644,12.7,0.717,14.48,105.0644,12.24,13.26,15.05,0,110.6,13.14,13.03,323.6
"2016-02-20 00:17:30",1389566,1.098,17.27,16.84,0.449,14.18,105.0707,12.25,13.27,15.69,0,110.6,13.14,13.05,339.3
"2016-02-20 00:18:00",1389567,0.266,306,64.92,0.225,14.11,105.0754,12.27,13.26,15.92,0,110.6,13.15,13.06,268.0
"2016-02-20 00:18:30",1389568,1.531,18.31,75.4,1.467,17.04,105.0691,12.25,13.51,16.13,0,110.5,13.1,13.04,340.3
"2016-02-20 00:19:00",1389569,1.348,123.6,58.9,1.449,16.83,105.0695,12.25,13.4,15.88,0,110.6,13.1,13.05,85.6
"2016-02-20 00:19:30",1389570,-0.217,228.9,98.5,0.107,13.67,105.0715,12.26,13.26,15.63,0,110.6,13.15,13.05,190.9
"2016-02-20 00:20:00",1389571,0.32,358.3,21.07,0.456,13.45,105.0727,12.26,13.25,15.55,0,110.5,13.15,13.05,320.3
"2016-02-20 00:20:30",1389572,0.491,330.8,33.61,0.386,13.49,105.0679,12.25,13.25,15.78,0,110.6,13.15,13.04,292.8
"2016-02-20 00:21:00",1389573,0.852,280.6,13.11,0.117,13.71,105.0434,12.18,13.24,15.76,0,110.6,13.15,12.98,242.6
"2016-02-20 00:21:30",1389574,1.854,288.1,7.158,0.338,13.74,105.0389,12.17,13.23,16.44,0,110.5,13.15,12.97,250.1
"2016-02-20 00:22:00",1389575,1.9,309.3,4.813,0.121,14.01,105.0389,12.17,13.2,16.97,0,110.5,13.15,12.97,271.3
"2016-02-20 00:22:30",1389576,1.521,304.4,10.57,0.418,14.22,105.038,12.17,13.19,17.07,0,110.5,13.15,12.96,266.4
"2016-02-20 00:23:00",1389577,2.266,312.5,15.74,1.554,17.03,105.0169,12.12,13.37,16.97,0,110.5,13.11,12.91,274.5
"2016-02-20 00:23:30",1389578,3.028,334.2,21.63,1.534,16.05,105.0048,12.08,13.26,14.52,0,110.5,13.11,12.88,296.2
"2016-02-20 00:24:00",1389579,3.744,322.1,11.28,1.033,14.89,104.9851,12.03,13.16,13.34,0,110.5,13.11,12.83,284.1
"2016-02-20 00:24:30",1389580,4.9,344.3,24.81,1.516,18.25,104.9712,12,13.39,13.93,0,110.5,13.11,12.79,306.3
"2016-02-20 00:25:00",1389581,4.054,350,24.81,1.994,17.42,104.967,11.99,13.26,14.08,0,110.5,13.11,12.78,312.0
"2016-02-20 00:25:30",1389582,2.532,295.7,10.67,1.238,14.64,104.9512,11.95,13.07,14.1,0,110.5,13.11,12.74,257.7
"2016-02-20 00:26:00",1389583,0.699,346.8,22.31,0.495,14.28,104.9374,11.91,13,13.96,0,110.5,13.15,12.71,308.8
"2016-02-20 00:26:30",1389584,1.506,339.2,9.16,0.458,14.18,104.9374,11.91,12.99,14.19,0,110.5,13.16,12.71,301.2
"2016-02-20 00:27:00",1389585,1.131,347.3,10.63,0.814,14.09,104.9315,11.9,12.95,16.52,0,110.5,13.16,12.69,309.3
"2016-02-20 00:27:30",1389586,0.591,313.8,25.1,0.42,14.36,104.9064,11.83,12.91,17.4,0,110.5,13.16,12.63,275.8
"2016-02-20 00:28:00",1389587,2.162,64.87,21.22,1.572,16.04,104.9036,11.83,13.02,17.27,0,110.5,13.11,12.62,26.9
"2016-02-20 00:28:30",1389588,2.265,50.28,7.298,1.274,16.28,104.9036,11.83,13.01,16.73,0,110.5,13.12,12.62,12.3
"2016-02-20 00:29:00",1389589,2.482,31.06,8.28,0.552,14.72,104.9008,11.82,12.85,15.34,0,110.5,13.16,12.61,353.1
"2016-02-20 00:29:30",1389590,3.298,18.69,19.55,1.284,16.1,104.8805,11.77,12.97,14.45,0,110.5,13.12,12.56,340.7
"2016-02-20 00:30:00",1389591,2.656,17.88,16.23,1.81,16.3,104.8701,11.74,13.01,14.53,0,110.5,13.12,12.53,339.9
"2016-02-20 00:30:30",1389592,3.189,49.33,12.49,1.308,15.23,104.8728,11.75,12.9,14.62,0,110.5,13.12,12.54,11.3
"2016-02-20 00:31:00",1389593,3.559,68.91,18.91,1.427,16.48,104.865,11.73,12.9,15.07,0,110.5,13.12,12.52,30.9
"2016-02-20 00:31:30",1389594,2.656,38.37,8.48,0.64,14.22,104.8469,11.68,12.8,14.69,0,110.5,13.17,12.47,0.4
"2016-02-20 00:32:00",1389595,2.01,29.55,8.16,0.462,14.36,104.8513,11.69,12.76,14.56,0,110.5,13.17,12.48,351.5
"2016-02-20 00:32:30",1389596,2.212,41.92,9.6,0.343,14.53,104.8513,11.69,12.73,14.74,0,110.5,13.17,12.48,3.9
"2016-02-20 00:33:00",1389597,2.005,43.31,11,1.307,16.15,104.8402,11.66,12.88,15.11,0,110.5,13.12,12.46,5.3
"2016-02-20 00:33:30",1389598,1.613,7.556,36.76,1.481,16.21,104.8329,11.64,12.82,15.09,0,110.5,13.12,12.44,329.6
"2016-02-20 00:34:00",1389599,2.489,332.6,8.42,0.895,14.63,104.8347,11.65,12.68,15.13,0,110.5,13.17,12.44,294.6
"2016-02-20 00:34:30",1389600,5.5,323.1,13.9,1.56,15.91,104.8247,11.62,12.77,15.75,0,110.5,13.12,12.42,285.1
"2016-02-20 00:35:00",1389601,7.264,322.7,10.98,1.84,16.88,104.8041,11.57,12.74,15.03,0,110.5,13.12,12.36,284.7
"2016-02-20 00:35:30",1389602,4.982,292.6,20.44,0.955,15.86,104.8038,11.57,12.72,13.9,0,110.5,13.12,12.36,254.6
"2016-02-20 00:36:00",1389603,5.169,313.8,7.983,1.817,15.79,104.7996,11.56,12.7,14.46,0,110.5,13.12,12.35,275.8
"2016-02-20 00:36:30",1389604,1.479,346.1,24.92,1.188,14.8,104.7981,11.56,12.63,14.19,0,110.5,13.13,12.35,308.1
"2016-02-20 00:37:00",1389605,1.813,19.61,11.21,1.202,15.44,104.8038,11.57,12.6,14.52,0,110.5,13.13,12.36,341.6
"2016-02-20 00:37:30",1389606,2.266,20.72,14.92,1.372,16.05,104.8038,11.57,12.69,14.85,0,110.5,13.13,12.36,342.7
"2016-02-20 00:38:00",1389607,3.383,16.33,8.91,1.371,15.73,104.8035,11.57,12.65,14.99,0,110.4,13.13,12.36,338.3
"2016-02-20 00:38:30",1389608,1.672,18.78,5.975,0.403,14.27,104.7979,11.56,12.55,15.29,0,110.4,13.18,12.35,340.8
"2016-02-20 00:39:00",1389609,2.091,28.34,7.338,0.219,14.32,104.7874,11.53,12.55,15.52,0,110.4,13.18,12.32,350.3
"2016-02-20 00:39:30",1389610,3.026,13.25,20.9,1.383,15.79,104.7708,11.49,12.64,16,0,110.4,13.13,12.28,335.2
"2016-02-20 00:40:00",1389611,3.736,5.044,18.38,1.216,15.99,104.77,11.48,12.65,14.95,0,110.4,13.13,12.28,327.0
"2016-02-20 00:40:30",1389612,2.598,5.394,9.68,0.539,14.35,104.7691,11.48,12.51,14.61,0,110.4,13.18,12.27,327.4
"2016-02-20 00:41:00",1389613,3.589,358.2,8.48,0.643,14.6,104.7505,11.43,12.58,14.7,0,110.4,13.13,12.23,320.2
"2016-02-20 00:41:30",1389614,3.601,26.62,11.22,1.478,16.49,104.7367,11.4,12.6,15.54,0,110.4,13.13,12.19,348.6
"2016-02-20 00:42:00",1389615,2.663,27.7,19.92,1.089,15.92,104.7379,11.4,12.62,15.94,0,110.4,13.13,12.19,349.7
"2016-02-20 00:42:30",1389616,2.615,60.43,9.46,1.337,16.02,104.7409,11.41,12.55,16.06,0,110.4,13.13,12.20,22.4
"2016-02-20 00:43:00",1389617,1.82,67.29,10.99,0.856,14.37,104.7385,11.4,12.43,16.09,0,110.4,13.18,12.20,29.3
"2016-02-20 00:43:30",1389618,0.463,64.99,10.31,0.252,14.27,104.7386,11.4,12.42,16.24,0,110.4,13.18,12.20,27.0
"2016-02-20 00:44:00",1389619,0.751,46.03,10.14,0.397,14.29,104.7418,11.41,12.41,16.33,0,110.4,13.18,12.20,8.0
"2016-02-20 00:44:30",1389620,0.688,38.93,6.108,0.589,14.34,104.7421,11.41,12.4,16.42,0,110.4,13.14,12.20,0.9
"2016-02-20 00:45:00",1389621,2.407,51.04,8.49,1.369,17.09,104.7416,11.41,12.6,16.75,0,110.4,13.14,12.20,13.0
"2016-02-20 00:45:30",1389622,1.446,23.86,8.58,0.803,14.56,104.7282,11.38,12.39,16.57,0,110.4,13.14,12.17,345.9
"2016-02-20 00:46:00",1389623,1.53,25.66,4.951,0.273,14.08,104.7271,11.37,12.39,15.96,0,110.4,13.18,12.17,347.7
"2016-02-20 00:46:30",1389624,1.77,49.56,10.52,0.198,14.18,104.7292,11.38,12.38,15.99,0,110.4,13.18,12.17,11.6
"2016-02-20 00:47:00",1389625,2.761,44.85,7.228,1.148,15.25,104.7249,11.37,12.39,15.97,0,110.4,13.13,12.16,6.8
"2016-02-20 00:47:30",1389626,4.139,52.15,7.452,1.403,16.99,104.7085,11.33,12.55,16.05,0,110.3,13.13,12.12,14.2
"2016-02-20 00:48:00",1389627,3.294,56.05,8.83,1.492,16.41,104.7027,11.31,12.5,16.06,0,110.4,13.13,12.10,18.0
"2016-02-20 00:48:30",1389628,3.775,51.59,8.19,1.049,15.85,104.7033,11.31,12.38,16.55,0,110.4,13.13,12.10,13.6
"2016-02-20 00:49:00",1389629,3.889,41.72,2.106,0.275,14.19,104.6878,11.27,12.3,16.54,0,110.4,13.18,12.06,3.7
"2016-02-20 00:49:30",1389630,3.321,27.75,6.318,1.209,14.77,104.6703,11.23,12.3,16.35,0,110.4,13.13,12.02,349.8
"2016-02-20 00:50:00",1389631,3.747,15.11,14.32,1.719,17.07,104.67,11.23,12.45,16.3,0,110.4,13.13,12.02,337.1
"2016-02-20 00:50:30",1389632,2.872,347.8,12.35,0.803,14.24,104.6684,11.22,12.25,15.73,0,110.4,13.13,12.02,309.8
"2016-02-20 00:51:00",1389633,4.524,341.2,8.36,0.529,13.65,104.6531,11.18,12.23,15.97,0,110.4,13.18,11.98,303.2
"2016-02-20 00:51:30",1389634,4.951,335.2,5.614,0.461,13.8,104.6362,11.14,12.23,16.47,0,110.3,13.18,11.93,297.2
"2016-02-20 00:52:00",1389635,4.976,354.7,16.59,2.144,17.46,104.6362,11.14,12.45,16.98,0,110.3,13.14,11.93,316.7
"2016-02-20 00:52:30",1389636,4.492,342.4,8.34,1.381,17.74,104.6306,11.13,12.4,17.26,0,110.3,13.14,11.92,304.4
"2016-02-20 00:53:00",1389637,2.488,353.7,9.41,1.384,14.07,104.6207,11.1,12.17,17.17,0,110.3,13.15,11.89,315.7
"2016-02-20 00:53:30",1389638,1.447,345.6,19.97,1.03,13.82,104.6046,11.06,12.14,17.09,0,110.3,13.15,11.85,307.6
"2016-02-20 00:54:00",1389639,3.266,303.9,15.74,1.286,15.7,104.6024,11.05,12.3,17.08,0,110.3,13.15,11.85,265.9
"2016-02-20 00:54:30",1389640,2.633,283.5,25.91,1.435,15.15,104.5995,11.05,12.17,16.59,0,110.3,13.15,11.84,245.5
"2016-02-20 00:55:00",1389641,3.372,303.7,6.971,0.648,13.79,104.5855,11.01,12.11,15.47,0,110.3,13.2,11.80,265.7
"2016-02-20 00:55:30",1389642,2.607,274.8,22.03,0.427,13.74,104.5721,10.98,12.08,15.26,0,110.3,13.2,11.77,236.8
"2016-02-20 00:56:00",1389643,2.093,299.2,11.62,0.356,13.82,104.5747,10.98,12.06,15.56,0,110.3,13.2,11.77,261.2
"2016-02-20 00:56:30",1389644,3.508,343.3,12.99,1.74,15.83,104.5777,10.99,12.15,16.55,0,110.3,13.15,11.78,305.3
"2016-02-20 00:57:00",1389645,3.509,350.7,14.72,1.394,17.31,104.585,11.01,12.27,17.05,0,110.3,13.15,11.80,312.7
"2016-02-20 00:57:30",1389646,2.864,328.1,18.35,1.47,16.57,104.5865,11.01,12.19,16.85,0,110.3,13.15,11.80,290.1
"2016-02-20 00:58:00",1389647,2.649,295.9,27.04,0.364,13.91,104.5945,11.03,12,16.76,0,110.3,13.2,11.83,257.9
"2016-02-20 00:58:30",1389648,3.44,320.3,18.65,1.559,15.92,104.5937,11.03,12.11,16.65,0,110.3,13.15,11.82,282.3
"2016-02-20 00:59:00",1389649,2.561,318.2,21.17,1.394,15.16,104.5834,11.01,12.1,16.27,0,110.3,13.15,11.80,280.2
"2016-02-20 00:59:30",1389650,1.757,301,14.06,0.351,13.63,104.5757,10.99,11.96,16.13,0,110.3,13.2,11.78,263.0
"2016-02-20 01:00:00",1389651,2.071,306.6,10.26,0.312,13.53,104.5698,10.97,11.96,16.31,0,110.3,13.2,11.76,268.6
"2016-02-20 01:00:30",1389652,1.398,334.5,38.64,0.846,13.65,104.5701,10.97,11.94,16.32,0,110.3,13.2,11.76,296.5
"2016-02-20 01:01:00",1389653,0.611,294.6,47.61,0.689,14.02,104.5701,10.97,11.94,16.28,0,110.3,13.2,11.76,256.6
"2016-02-20 01:01:30",1389654,1.989,284,19.56,0.544,14.15,104.5692,10.97,11.94,16.23,0,110.3,13.16,11.76,246.0
"2016-02-20 01:02:00",1389655,4.849,341.5,12.89,1.589,17.33,104.5557,10.94,12.17,16.79,0,110.3,13.16,11.73,303.5
"2016-02-20 01:02:30",1389656,6.187,344.3,11.58,1.393,17.26,104.5371,10.89,12.08,16.11,0,110.3,13.16,11.68,306.3
"2016-02-20 01:03:00",1389657,5.522,339.9,15.32,1.326,16.99,104.5362,10.89,12.03,15.36,0,110.3,13.16,11.68,301.9
"2016-02-20 01:03:30",1389658,3.999,326.2,12.04,1.802,15.65,104.5362,10.89,12.06,15.59,0,110.3,13.16,11.68,288.2
"2016-02-20 01:04:00",1389659,1.118,323.1,35.02,1.425,15.16,104.5362,10.89,11.92,15.54,0,110.3,13.15,11.68,285.1
"2016-02-20 01:04:30",1389660,1.192,353.3,15.63,0.632,13.63,104.5362,10.89,11.88,15.14,0,110.3,13.2,11.68,315.3
"2016-02-20 01:05:00",1389661,2.177,10.75,12.23,0.96,13.5,104.5294,10.87,11.88,14.91,0,110.3,13.2,11.66,332.8
"2016-02-20 01:05:30",1389662,2.658,0.431,15.27,0.556,13.58,104.5238,10.85,11.86,15.41,0,110.3,13.2,11.64,322.4
"2016-02-20 01:06:00",1389663,3.933,339,12.4,1.262,13.92,104.5176,10.84,11.85,15.6,0,110.3,13.2,11.63,301.0
"2016-02-20 01:06:30",1389664,7.69,329.9,8.75,1.295,16.23,104.5145,10.83,11.97,15.73,0,110.3,13.15,11.62,291.9
"2016-02-20 01:07:00",1389665,8.04,5.322,12.26,1.527,18.03,104.5193,10.84,12.12,15.82,0,110.3,13.15,11.63,327.3
"2016-02-20 01:07:30",1389666,6.584,358.9,10.1,1.723,16.76,104.5247,10.86,12.07,15.79,0,110.3,13.15,11.65,320.9
"2016-02-20 01:08:00",1389667,5.778,13.56,11.31,1.992,17,104.5303,10.87,12,15.37,0,110.3,13.15,11.66,335.6
"2016-02-20 01:08:30",1389668,4.109,314.7,21.09,0.889,13.8,104.534,10.88,11.84,15.64,0,110.3,13.2,11.67,276.7
"2016-02-20 01:09:00",1389669,2.793,284.4,20.53,0.66,13.8,104.5365,10.89,11.84,15.61,0,110.3,13.2,11.68,246.4
"2016-02-20 01:09:30",1389670,2.591,277.3,9.75,0.479,13.84,104.5371,10.89,11.85,15.65,0,110.3,13.2,11.68,239.3
"2016-02-20 01:10:00",1389671,1.968,266.5,13.52,0.222,14.02,104.5365,10.89,11.87,15.86,0,110.3,13.21,11.68,228.5
"2016-02-20 01:10:30",1389672,1.949,275.6,13.76,1.07,15.05,104.5392,10.89,11.87,15.89,0,110.3,13.17,11.68,237.6
"2016-02-20 01:11:00",1389673,2.988,304.4,4.188,1.523,15.99,104.5432,10.9,11.98,16.23,0,110.3,13.17,11.69,266.4
"2016-02-20 01:11:30",1389674,3.47,309.6,8.46,1.444,16.88,104.5597,10.95,12.13,16.41,0,110.3,13.17,11.74,271.6
"2016-02-20 01:12:00",1389675,4.121,311.9,12.52,1.794,16.2,104.5549,10.93,12.06,16.33,0,110.3,13.17,11.72,273.9
"2016-02-20 01:12:30",1389676,3.592,282.8,13.24,1.403,16.96,104.5474,10.91,12.07,16.3,0,110.3,13.17,11.70,244.8
"2016-02-20 01:13:00",1389677,2.557,256.2,5.368,0.44,13.91,104.5468,10.91,11.95,16.33,0,110.3,13.21,11.70,218.2
"2016-02-20 01:13:30",1389678,1.89,267.1,16,0.297,13.42,104.5474,10.91,11.91,16.05,0,110.3,13.21,11.70,229.1
"2016-02-20 01:14:00",1389679,1.007,319.5,14.42,0.701,13.38,104.5501,10.92,11.88,15.42,0,110.3,13.21,11.71,281.5
"2016-02-20 01:14:30",1389680,0.347,290.8,35.27,0.336,13.76,104.5549,10.93,11.88,15.08,0,110.3,13.21,11.72,252.8
"2016-02-20 01:15:00",1389681,0.175,338.2,36.04,0.251,13.73,104.5598,10.95,11.87,14.78,0,110.3,13.22,11.74,300.2
"2016-02-20 01:15:30",1389682,-0.168,40.72,68.56,0.176,13.91,104.5616,10.95,11.87,15.26,0,110.3,13.22,11.74,2.7
"2016-02-20 01:16:00",1389683,1.41,251.4,15.7,0.755,14.16,104.5639,10.96,11.92,15.47,0,110.3,13.22,11.75,213.4
"2016-02-20 01:16:30",1389684,2.317,250.7,39.89,1.482,17.51,104.5642,10.96,12.05,15.38,0,110.3,13.17,11.75,212.7
"2016-02-20 01:17:00",1389685,0.25,238.6,40.68,0.36,14.47,104.5669,10.96,11.94,15.44,0,110.3,13.22,11.75,200.6
"2016-02-20 01:17:30",1389686,1.553,207.7,23.63,1.571,16.37,104.5675,10.97,11.99,15.96,0,110.3,13.17,11.76,169.7
"2016-02-20 01:18:00",1389687,1.278,234.4,22.47,1.143,15.62,104.5679,10.97,11.99,16.05,0,110.3,13.17,11.76,196.4
"2016-02-20 01:18:30",1389688,1.158,231,13.71,1.17,15.48,104.5597,10.95,11.94,15.57,0,110.3,13.17,11.74,193.0
"2016-02-20 01:19:00",1389689,1.243,194.7,13.36,1.258,15.71,104.5462,10.91,12.01,15.47,0,110.3,13.17,11.70,156.7
"2016-02-20 01:19:30",1389690,0.561,169.3,18.54,1.107,14.39,104.5377,10.89,11.91,15.3,0,110.3,13.17,11.68,131.3
"2016-02-20 01:20:00",1389691,-0.053,193.1,41.17,0.138,13.26,104.5378,10.89,11.85,15.37,0,110.3,13.22,11.68,155.1
"2016-02-20 01:20:30",1389692,0.56,260.4,12.08,0.232,13.29,104.5341,10.88,11.82,15.47,0,110.3,13.22,11.67,222.4
"2016-02-20 01:21:00",1389693,0.242,278.6,13.81,0.279,13.41,104.5234,10.85,11.83,15.48,0,110.3,13.21,11.64,240.6
"2016-02-20 01:21:30",1389694,-0.144,246.3,18.18,0.079,13.52,104.507,10.81,11.82,15.44,0,110.3,13.22,11.60,208.3
"2016-02-20 01:22:00",1389695,0.207,170.6,30.42,0.23,13.51,104.5039,10.8,11.81,15.41,0,110.2,13.21,11.59,132.6
"2016-02-20 01:22:30",1389696,0.954,209.2,20.12,0.475,13.7,104.5039,10.8,11.78,15.46,0,110.3,13.22,11.59,171.2
"2016-02-20 01:23:00",1389697,1.446,131.5,21.26,0.769,14,104.4929,10.77,11.77,15.45,0,110.3,13.22,11.56,93.5
"2016-02-20 01:23:30",1389698,2.83,188.5,26.62,1.582,15.77,104.4757,10.73,11.87,15.48,0,110.2,13.17,11.52,150.5
"2016-02-20 01:24:00",1389699,2.607,202.4,18.75,1.565,16.18,104.47,10.72,11.9,15.21,0,110.2,13.17,11.51,164.4
"2016-02-20 01:24:30",1389700,1.885,248.6,39.27,1.302,17.24,104.47,10.72,11.9,15.17,0,110.2,13.17,11.51,210.6
"2016-02-20 01:25:00",1389701,2.026,181.9,11.5,1.152,16.33,104.4692,10.71,11.84,15.12,0,110.2,13.17,11.50,143.9
"2016-02-20 01:25:30",1389702,2.44,167.5,17.12,1.49,16.66,104.4692,10.71,11.92,14.82,0,110.2,13.17,11.50,129.5
"2016-02-20 01:26:00",1389703,0.141,135.9,57.89,0.952,14.28,104.4889,10.76,11.76,14.64,0,110.2,13.17,11.55,97.9
"2016-02-20 01:26:30",1389704,0.485,91.8,42.9,0.633,13.41,104.5039,10.8,11.73,15.03,0,110.2,13.22,11.59,53.8
"2016-02-20 01:27:00",1389705,0.229,291.3,73.44,0.478,13.45,104.5256,10.86,11.73,14.91,0,110.2,13.22,11.65,253.3
"2016-02-20 01:27:30",1389706,0.98,323.7,11.68,0.263,13.41,104.5449,10.91,11.77,14.65,0,110.2,13.22,11.70,285.7
"2016-02-20 01:28:00",1389707,2.326,289.2,15.93,0.481,13.69,104.5684,10.97,11.79,14.94,0,110.2,13.23,11.76,251.2
"2016-02-20 01:28:30",1389708,2.418,314,8.29,0.312,13.94,104.5692,10.97,11.84,15.06,0,110.2,13.23,11.76,276.0
"2016-02-20 01:29:00",1389709,1.979,318.4,9.06,0.375,14.21,104.5684,10.97,11.85,14.99,0,110.2,13.23,11.76,280.4
"2016-02-20 01:29:30",1389710,1.382,316.2,15.71,1.207,15.22,104.5631,10.95,11.89,14.95,0,110.2,13.18,11.74,278.2
"2016-02-20 01:30:00",1389711,2.45,4.168,17.53,1.427,17.02,104.5503,10.92,12.01,15.13,0,110.2,13.18,11.71,326.2
"2016-02-20 01:30:30",1389712,2.264,42.02,22.68,1.469,17.44,104.5478,10.92,12.08,15.28,0,110.2,13.18,11.71,4.0
"2016-02-20 01:31:00",1389713,2.56,73.52,33.83,1.358,17.64,104.5417,10.9,12,15.19,0,110.2,13.18,11.69,35.5
"2016-02-20 01:31:30",1389714,3.12,328,15.72,1.492,15.45,104.5209,10.85,11.92,15.08,0,110.2,13.18,11.64,290.0
"2016-02-20 01:32:00",1389715,2.024,336,13.69,0.59,13.55,104.5198,10.84,11.81,14.97,0,110.2,13.23,11.63,298.0
"2016-02-20 01:32:30",1389716,2.327,329.7,5.488,0.347,13.43,104.5094,10.82,11.8,14.94,0,110.2,13.23,11.61,291.7
"2016-02-20 01:33:00",1389717,1.213,353.7,10.59,0.45,13.46,104.4963,10.78,11.79,14.98,0,110.2,13.23,11.57,315.7
"2016-02-20 01:33:30",1389718,1.716,338.2,3.553,0.146,13.78,104.4898,10.77,11.77,15.1,0,110.2,13.23,11.56,300.2
"2016-02-20 01:34:00",1389719,1.366,343.7,11.8,0.386,14,104.493,10.78,11.76,15.18,0,110.2,13.23,11.56,305.7
"2016-02-20 01:34:30",1389720,0.994,7.893,34.83,0.343,14.32,104.4887,10.76,11.75,15.31,0,110.2,13.23,11.55,329.9
"2016-02-20 01:35:00",1389721,1.061,34.77,11.25,0.934,15.18,104.472,10.72,11.79,15.3,0,110.2,13.18,11.51,356.8
"2016-02-20 01:35:30",1389722,2.625,33.57,18.53,1.354,18.18,104.4624,10.7,11.95,15.54,0,110.2,13.18,11.49,355.6
"2016-02-20 01:36:00",1389723,1.452,56.4,13.23,1.29,16.43,104.463,10.7,11.83,15.34,0,110.2,13.18,11.49,18.4
"2016-02-20 01:36:30",1389724,1.569,42.3,17.09,1.444,16.35,104.4573,10.68,11.9,15.42,0,110.2,13.18,11.47,4.3
"2016-02-20 01:37:00",1389725,0.798,65.06,23.54,1.053,15.04,104.4518,10.67,11.76,15.38,0,110.2,13.18,11.46,27.1
"2016-02-20 01:37:30",1389726,0.08,36.86,36.61,0.194,13.27,104.4485,10.66,11.66,15.45,0,110.2,13.22,11.45,358.9
"2016-02-20 01:38:00",1389727,-0.249,324.1,56.05,0.114,13.21,104.4482,10.66,11.65,15.59,0,110.2,13.22,11.45,286.1
"2016-02-20 01:38:30",1389728,-0.054,345.5,25.36,0.272,13.01,104.4364,10.63,11.64,15.55,0,110.2,13.22,11.42,307.5
"2016-02-20 01:39:00",1389729,0.083,341.5,32.01,0.232,13.34,104.4347,10.63,11.62,15.12,0,110.2,13.22,11.42,303.5
"2016-02-20 01:39:30",1389730,0.175,100,23.11,0.164,13.52,104.4295,10.61,11.61,14.84,0,110.2,13.22,11.40,62.0
"2016-02-20 01:40:00",1389731,0.286,92,9.54,0.11,13.62,104.419,10.59,11.59,15.03,0,110.2,13.22,11.37,54.0
"2016-02-20 01:40:30",1389732,0.49,87,10.74,0.227,13.77,104.4043,10.55,11.58,15.3,0,110.2,13.22,11.34,49.0
"2016-02-20 01:41:00",1389733,0.789,106.1,9.7,0.209,14.18,104.4029,10.54,11.56,15.43,0,110.2,13.23,11.33,68.1
"2016-02-20 01:41:30",1389734,0.844,107.9,8.51,0.131,14.23,104.3933,10.52,11.55,15.43,0,110.2,13.23,11.31,69.9
"2016-02-20 01:42:00",1389735,0.596,108.3,9.29,0.072,14.5,104.3787,10.48,11.54,15.42,0,110.2,13.23,11.27,70.3
"2016-02-20 01:42:30",1389736,2.197,125,12.43,1.545,17.36,104.3699,10.46,11.73,15.61,0,110.2,13.18,11.25,87.0
"2016-02-20 01:43:00",1389737,3.098,127.1,8.24,1.29,18.23,104.3694,10.46,11.7,15.69,0,110.2,13.19,11.25,89.1
"2016-02-20 01:43:30",1389738,0.936,125.3,7.395,1.064,15.27,104.3544,10.42,11.57,15.62,0,110.2,13.19,11.21,87.3
"2016-02-20 01:44:00",1389739,1.107,132,11.41,1.329,15.65,104.3374,10.38,11.57,15.64,0,110.2,13.19,11.17,94.0
"2016-02-20 01:44:30",1389740,1.611,110,11.43,1.401,15.88,104.336,10.37,11.56,15.54,0,110.2,13.19,11.16,72.0
"2016-02-20 01:45:00",1389741,0.56,82.4,9.62,0.226,13.83,104.3338,10.37,11.41,15.41,0,110.2,13.23,11.16,44.4
"2016-02-20 01:45:30",1389742,0.44,76.61,8.3,0.098,13.69,104.3205,10.33,11.4,15.21,0,110.2,13.23,11.12,38.6
"2016-02-20 01:46:00",1389743,0.434,82.9,9.22,0.101,13.82,104.3041,10.29,11.38,14.98,0,110.2,13.23,11.08,44.9
"2016-02-20 01:46:30",1389744,0.438,98.6,7.273,0.115,13.76,104.3022,10.29,11.35,15,0,110.2,13.24,11.07,60.6
"2016-02-20 01:47:00",1389745,0.159,106.4,11.68,0.132,13.95,104.2993,10.28,11.33,14.94,0,110.2,13.24,11.07,68.4